Flag Weather past 2 weeks in Tashkent, Uzbekistan

Now
50 °F

Clear.


Feels Like: 48 °F
Forecast: 39 / 58 °F
Wind: 6 mph from Northwest

Location: Tashkent

Current Time: Nov 22, 2014 at 3:38:13 PM

Latest Report: Nov 22, 2014 at 3:00 PM


Visibility: 4 mi

Pressure: 30.24 "Hg

Humidity: 58%

Dew point: 36 °F

Location of TashkentLocation

Historic Weather in Tashkent — Graph

°F

Tashkent temperature yesterday

Maximum temperature yesterday: 45 °F (at 12:30 PM)
Minimum temperature yesterday: 41 °F (at 12:00 AM)
Average temperature yesterday: 42 °F

Past Weeks' High & Low Weather Summary

 TemperatureHumidityPressure
High68 °F (Nov 17, 3:30 PM)100% (Nov 8, 2:00 AM)30.69 "Hg (Nov 8, 2:00 AM)
Low32 °F (Nov 9, 1:00 AM)23% (Nov 17, 3:30 PM)30.12 "Hg (Nov 17, 3:00 PM)
Average43 °F73%30.37 "Hg
* Reported Nov 7 2:00 PM — Nov 22 2:00 PM, Tashkent, Weather by CustomWeather, © 2014

Note: Actual official high and low records may vary slightly from our data, if they occured in-between our weather recording intervals... More about our weather records

Advertising

Tashkent weather history for previous 24 hours

 ConditionsComfort  
Time TempWeatherWind HumidityBarometerVisibility
2:00 PM
Nov 22
50 °FClear.5 mph58%30.27 "Hg4 mi
1:30 PM50 °FClear.5 mph58%30.27 "Hg4 mi
1:00 PM50 °FClear.2 mph62%30.30 "Hg3 mi
12:30 PM50 °FClear.2 mph62%30.30 "Hg2 mi
12:00 PM48 °FScattered clouds.2 mph66%30.30 "Hg2 mi
11:30 AM46 °FFog.3 mph71%30.33 "Hg2 mi
11:00 AM46 °FFog.2 mph71%30.36 "Hg2 mi
10:30 AM45 °FFog.1 mph87%30.36 "Hg2 mi
10:00 AM43 °FFog.2 mph100%30.36 "Hg2 mi
9:30 AM41 °FFog.2 mph100%30.36 "Hg2 mi
9:00 AM39 °FFog.2 mph100%30.36 "Hg1 mi
8:00 AM36 °FFog.3 mph100%30.36 "Hg1 mi
7:30 AM34 °FFog.5 mph100%30.36 "Hg0 mi
7:00 AM32 °FFog.5 mph100%30.36 "Hg0 mi
6:30 AM36 °FFog.5 mph100%30.36 "Hg0 mi
6:00 AM36 °FFog.5 mph100%30.36 "Hg2 mi
5:30 AM36 °FFog.2 mph100%30.36 "Hg2 mi
5:00 AM36 °FFog.6 mph100%30.36 "Hg2 mi
4:30 AM36 °FFog.2 mph100%30.36 "Hg2 mi
4:00 AM36 °FFog.1 mph100%30.36 "Hg0 mi
3:30 AM37 °FFog.1 mph100%30.36 "Hg2 mi
3:00 AM37 °FFog.2 mph93%30.36 "Hg1 mi
2:30 AM37 °FFog.2 mph100%30.36 "Hg2 mi
2:00 AM37 °FFog.3 mph100%30.36 "Hg2 mi
1:30 AM37 °FFog.3 mph100%30.36 "Hg2 mi
1:00 AM37 °FFog.1 mph93%30.36 "Hg2 mi
12:30 AM39 °FFog.No wind87%30.36 "Hg2 mi
12:00 AM39 °FFog.2 mph87%30.36 "Hg2 mi
11:30 PM
Nov 21
41 °FFog.2 mph81%30.36 "Hg2 mi
11:00 PM41 °FClear.6 mph81%30.36 "Hg10 mi
10:30 PM41 °FPassing clouds.2 mph81%30.39 "HgN/A
10:00 PM41 °FPassing clouds.No wind81%30.39 "HgN/A
9:30 PM43 °FClear.3 mph76%30.39 "Hg10 mi
9:00 PM43 °FOvercast.5 mph71%30.39 "HgN/A
8:00 PM43 °FOvercast.6 mph76%30.39 "HgN/A
7:30 PM43 °FPassing clouds.5 mph76%30.39 "HgN/A
7:00 PM43 °FClear.6 mph81%30.39 "Hg10 mi
6:30 PM43 °FClear.6 mph81%30.39 "Hg10 mi
6:00 PM43 °FOvercast.6 mph81%30.39 "HgN/A
5:30 PM45 °FFog.6 mph76%30.39 "Hg3 mi
5:00 PM45 °FFog.6 mph76%30.39 "Hg3 mi
4:30 PM45 °FFog.6 mph81%30.39 "Hg3 mi
4:00 PM45 °FFog.7 mph81%30.39 "Hg3 mi
3:30 PM45 °FFog.5 mph81%30.36 "Hg3 mi
3:00 PM45 °FFog.3 mph81%30.36 "Hg3 mi
Weather by CustomWeather, © 2014

See weather overviewHow to use our weather pages